sat.trackr.live / text

‹ back to catalog

STARLINK-2498

NORAD 48326 · 2021-036BC

PAYLOAD ACTIVE UNKNOWN

§ Identity

Operator
Country
US
Launch date
2021-04-29
Launch site
AFETR
Launch vehicle
Mass (kg)
RCS (m²)

Purposes: comms

External: N2YO · Heavens-Above · Gunter

§ Orbital elements

Epoch: 2026-09-03T19:26:49.660800Z

Period
94.01 min
Inclination
53.1605°
Eccentricity
0.0000834
Mean motion
15.31722272 rev/d
Perigee alt
470.1 km
Apogee alt
471.2 km
Semi-major
6,848.8 km
B*
4.5181e-4
RAAN
352.1940°
Arg perigee
77.3304°
Mean anomaly
282.7791°
Rev number
29,533

§ Raw data

STARLINK-24981 48326U 21036BC  26246.81029700  .00013691  00000+0  45181-3 0  99932 48326  53.1605 352.1940 0000834  77.3304 282.7791 15.31722272295338

JSON: /api/v1/satellites/48326 · /tle

For live sub-satellite position, see the globe view (requires WebGL).

§ Visibility from observer

Set your observer location to see the next 7 days of passes ≥ 10°. The values pass through the URL so the page stays shareable.

No JS? Fill the form by hand. The geolocation button needs JavaScript.